Flag for Canada Weather past 2 weeks in Steinbach, Manitoba, Canada

Now
67 °F

Mild.


Feels Like: 67 °F
Forecast: 62 / 86 °F
Wind: 2 mph from Southeast

Location: Winnipeg The Forks

Current Time: Aug 20, 2014 at 2:28:05 AM

Latest Report: Aug 20, 2014 at 1:00 AM


Visibility: N/A

Pressure: 29.75 "Hg

Humidity: 78%

Dew point: 60 °F

Location of SteinbachLocation

Historic Weather in Steinbach — Graph

°F

Steinbach temperature yesterday

Maximum temperature yesterday: 79 °F (at 4:00 PM)
Minimum temperature yesterday: 62 °F (at 7:00 AM)
Average temperature yesterday: 70 °F

Past Weeks' High & Low Weather Summary

 TemperatureHumidityPressure
High90 °F (Aug 15, 4:00 PM)97% (Aug 13, 6:00 AM)30.21 "Hg (Aug 13, 6:00 AM)
Low54 °F (Aug 13, 6:00 AM)33% (Aug 13, 6:00 PM)29.67 "Hg (Aug 18, 3:00 PM)
Average71 °F65%29.96 "Hg
* Reported Aug 5 1:00 AM — Aug 20 1:00 AM, Steinbach, Weather by CustomWeather, © 2014

Note: Actual official high and low records may vary slightly from our data, if they occured in-between our weather recording intervals... More about our weather records

Advertising

Steinbach weather history for previous 24 hours

 ConditionsComfort  
Time TempWeatherWind HumidityBarometerVisibility
1:00 AM
Aug 20
67 °FMild.2 mph78%29.75 "HgN/A
12:00 AM68 °FMild.3 mph82%29.76 "HgN/A
11:00 PM
Aug 19
69 °FMild.3 mph77%29.75 "HgN/A
10:00 PM71 °FMild.2 mph72%29.75 "HgN/A
9:00 PM72 °FMild.2 mph68%29.74 "HgN/A
8:00 PM76 °FMild.2 mph58%29.73 "HgN/A
7:00 PM78 °FWarm.3 mph53%29.72 "HgN/A
6:00 PM78 °FWarm.5 mph53%29.72 "HgN/A
5:00 PM79 °FWarm.2 mph50%29.72 "HgN/A
4:00 PM79 °FWarm.2 mph53%29.72 "HgN/A
3:00 PM77 °FWarm.2 mph56%29.73 "HgN/A
2:00 PM77 °FWarm.2 mph55%29.74 "HgN/A
1:00 PM74 °FMild.1 mph67%29.74 "HgN/A
12:00 PM74 °FMild.2 mph71%29.74 "HgN/A
11:00 AM71 °FMild.1 mph69%29.75 "HgN/A
10:00 AM67 °FMild.1 mph87%29.75 "HgN/A
9:00 AM64 °FMild.1 mph92%29.74 "HgN/A
8:00 AM63 °FMild.1 mph95%29.72 "HgN/A
7:00 AM62 °FCool.1 mph95%29.72 "HgN/A
6:00 AM63 °FMild.1 mph94%29.71 "HgN/A
5:00 AM64 °FMild.1 mph94%29.70 "HgN/A
4:00 AM64 °FMild.1 mph92%29.70 "HgN/A
3:00 AM65 °FMild.2 mph90%29.69 "HgN/A
2:00 AM65 °FMild.1 mph89%29.69 "HgN/A
Weather by CustomWeather, © 2014

See weather overviewHow to use our weather pages